Time,TemperatureF,DewpointF,PressureIn,WindDirection,WindDirectionDegrees,WindSpeedMPH,WindSpeedGustMPH,Humidity,HourlyPrecipIn,Conditions,Clouds,dailyrainin,SoftwareType,DateUTC
2013-02-03 00:04:00,47.3,37.0,27.47,ENE,67,0.0,1.4,67,0.00,,,0.00,Rainwise IP-100,2013-02-03 07:04:00,
2013-02-03 00:09:00,47.6,37.0,27.47,ENE,67,0.0,1.2,67,0.00,,,0.00,Rainwise IP-100,2013-02-03 07:09:00,
2013-02-03 00:14:00,47.8,38.0,27.47,ENE,67,0.0,0.0,67,0.00,,,0.00,Rainwise IP-100,2013-02-03 07:14:00,
2013-02-03 00:19:00,47.9,38.0,27.47,ENE,67,0.0,0.0,67,0.00,,,0.00,Rainwise IP-100,2013-02-03 07:19:00,
2013-02-03 00:24:00,47.7,37.0,27.47,ENE,67,0.0,0.0,68,0.00,,,0.00,Rainwise IP-100,2013-02-03 07:24:00,
2013-02-03 00:29:00,47.5,37.0,27.47,ENE,67,0.0,0.0,68,0.00,,,0.00,Rainwise IP-100,2013-02-03 07:29:00,
2013-02-03 00:34:00,47.4,37.0,27.46,ENE,67,0.0,0.0,68,0.00,,,0.00,Rainwise IP-100,2013-02-03 07:34:00,
2013-02-03 00:39:00,47.4,37.0,27.46,ENE,67,0.0,0.0,68,0.00,,,0.00,Rainwise IP-100,2013-02-03 07:39:00,
2013-02-03 00:44:00,47.4,37.0,27.46,ENE,67,0.0,0.0,68,0.00,,,0.00,Rainwise IP-100,2013-02-03 07:44:00,
2013-02-03 00:49:00,47.3,38.0,27.46,ENE,67,0.0,0.0,69,0.00,,,0.00,Rainwise IP-100,2013-02-03 07:49:00,
2013-02-03 00:54:00,47.1,37.0,27.46,ENE,67,0.0,0.0,69,0.00,,,0.00,Rainwise IP-100,2013-02-03 07:54:00,
2013-02-03 00:59:00,47.0,37.0,27.46,ENE,67,0.0,0.0,70,0.00,,,0.00,Rainwise IP-100,2013-02-03 07:59:00,
2013-02-03 01:04:00,46.9,37.0,27.46,ENE,67,0.0,0.0,70,0.00,,,0.00,Rainwise IP-100,2013-02-03 08:04:00,
2013-02-03 01:09:00,46.5,37.0,27.45,ENE,67,0.0,0.0,70,0.00,,,0.00,Rainwise IP-100,2013-02-03 08:09:00,
2013-02-03 01:14:00,46.0,37.0,27.46,ENE,67,0.0,0.0,70,0.00,,,0.00,Rainwise IP-100,2013-02-03 08:14:00,
2013-02-03 01:19:00,45.6,37.0,27.46,ENE,67,0.0,0.0,72,0.00,,,0.00,Rainwise IP-100,2013-02-03 08:19:00,
2013-02-03 01:24:00,45.7,38.0,27.45,ENE,67,0.0,2.1,73,0.00,,,0.00,Rainwise IP-100,2013-02-03 08:24:00,
2013-02-03 01:29:00,45.9,37.0,27.45,ENE,67,0.0,0.0,72,0.00,,,0.00,Rainwise IP-100,2013-02-03 08:29:00,
2013-02-03 01:34:00,46.0,37.0,27.45,ENE,67,0.0,0.0,72,0.00,,,0.00,Rainwise IP-100,2013-02-03 08:34:00,
2013-02-03 01:39:00,45.8,37.0,27.44,ENE,67,0.0,0.0,72,0.00,,,0.00,Rainwise IP-100,2013-02-03 08:39:00,
2013-02-03 01:44:00,45.2,37.0,27.45,ENE,67,0.0,0.0,73,0.00,,,0.00,Rainwise IP-100,2013-02-03 08:44:00,
2013-02-03 01:49:00,44.8,37.0,27.44,ENE,67,0.0,0.0,73,0.00,,,0.00,Rainwise IP-100,2013-02-03 08:49:00,
2013-02-03 01:54:00,44.5,37.0,27.44,ENE,67,0.0,0.0,74,0.00,,,0.00,Rainwise IP-100,2013-02-03 08:54:00,
2013-02-03 01:59:00,44.5,38.0,27.44,ENE,67,0.0,0.0,75,0.00,,,0.00,Rainwise IP-100,2013-02-03 08:59:00,
2013-02-03 02:04:00,44.6,38.0,27.43,ENE,67,0.0,0.0,75,0.00,,,0.00,Rainwise IP-100,2013-02-03 09:04:00,
2013-02-03 02:09:00,44.4,37.0,27.43,ENE,67,0.0,0.0,75,0.00,,,0.00,Rainwise IP-100,2013-02-03 09:09:00,
2013-02-03 02:14:00,44.1,37.0,27.43,ENE,67,0.0,0.0,75,0.00,,,0.00,Rainwise IP-100,2013-02-03 09:14:00,
2013-02-03 02:19:00,44.0,37.0,27.42,ENE,67,0.0,0.0,76,0.00,,,0.00,Rainwise IP-100,2013-02-03 09:19:00,
2013-02-03 02:24:00,43.9,37.0,27.42,ENE,67,0.0,0.0,77,0.00,,,0.00,Rainwise IP-100,2013-02-03 09:24:00,
2013-02-03 02:29:00,44.1,37.0,27.43,ENE,67,0.0,0.0,77,0.00,,,0.00,Rainwise IP-100,2013-02-03 09:29:00,
2013-02-03 02:34:00,44.5,38.0,27.42,ENE,67,0.0,0.0,76,0.00,,,0.00,Rainwise IP-100,2013-02-03 09:34:00,
2013-02-03 02:39:00,45.2,38.0,27.42,ESE,112,0.0,2.3,76,0.00,,,0.00,Rainwise IP-100,2013-02-03 09:39:00,
2013-02-03 02:44:00,45.9,38.0,27.42,ESE,112,0.0,0.0,74,0.00,,,0.00,Rainwise IP-100,2013-02-03 09:44:00,
2013-02-03 02:49:00,46.1,38.0,27.42,ESE,112,0.0,2.1,74,0.00,,,0.00,Rainwise IP-100,2013-02-03 09:49:00,
2013-02-03 02:54:00,46.3,38.0,27.42,South,180,0.0,1.2,73,0.00,,,0.00,Rainwise IP-100,2013-02-03 09:54:00,
2013-02-03 02:59:00,46.4,38.0,27.42,WNW,292,0.0,4.0,73,0.00,,,0.00,Rainwise IP-100,2013-02-03 09:59:00,
2013-02-03 03:04:00,46.5,38.0,27.41,WNW,292,0.0,0.0,73,0.00,,,0.00,Rainwise IP-100,2013-02-03 10:04:00,
2013-02-03 03:09:00,47.0,38.0,27.42,WNW,292,0.0,0.0,72,0.00,,,0.00,Rainwise IP-100,2013-02-03 10:09:00,
2013-02-03 03:14:00,47.3,38.0,27.41,WNW,292,0.0,0.0,71,0.00,,,0.00,Rainwise IP-100,2013-02-03 10:14:00,
2013-02-03 03:19:00,47.5,38.0,27.41,WNW,292,0.0,0.0,70,0.00,,,0.00,Rainwise IP-100,2013-02-03 10:19:00,
2013-02-03 03:24:00,47.8,38.0,27.41,WNW,292,0.0,0.0,69,0.00,,,0.00,Rainwise IP-100,2013-02-03 10:24:00,
2013-02-03 03:29:00,48.1,38.0,27.41,WNW,292,0.0,0.0,69,0.00,,,0.00,Rainwise IP-100,2013-02-03 10:29:00,
2013-02-03 03:34:00,48.3,38.0,27.41,WNW,292,0.0,0.0,68,0.00,,,0.00,Rainwise IP-100,2013-02-03 10:34:00,
2013-02-03 03:39:00,48.0,38.0,27.41,WNW,292,0.0,0.0,68,0.00,,,0.00,Rainwise IP-100,2013-02-03 10:39:00,
2013-02-03 03:44:00,47.7,37.0,27.41,WNW,292,0.0,0.0,68,0.00,,,0.00,Rainwise IP-100,2013-02-03 10:44:00,
2013-02-03 03:49:00,47.6,37.0,27.41,WNW,292,0.0,0.0,68,0.00,,,0.00,Rainwise IP-100,2013-02-03 10:49:00,
2013-02-03 03:54:00,47.6,37.0,27.41,SSE,157,0.0,1.4,67,0.00,,,0.00,Rainwise IP-100,2013-02-03 10:54:00,
2013-02-03 03:59:00,47.4,37.0,27.41,SSE,157,0.0,0.0,68,0.00,,,0.00,Rainwise IP-100,2013-02-03 10:59:00,
2013-02-03 04:04:00,47.1,37.0,27.41,SSE,157,0.0,0.0,69,0.00,,,0.00,Rainwise IP-100,2013-02-03 11:04:00,
2013-02-03 04:09:00,46.8,37.0,27.41,SSE,157,0.0,0.0,70,0.00,,,0.00,Rainwise IP-100,2013-02-03 11:09:00,
2013-02-03 04:14:00,46.3,37.0,27.40,SSE,157,0.0,0.0,71,0.00,,,0.00,Rainwise IP-100,2013-02-03 11:14:00,
2013-02-03 04:19:00,46.2,37.0,27.40,SSE,157,0.0,0.0,71,0.00,,,0.00,Rainwise IP-100,2013-02-03 11:19:00,
2013-02-03 04:24:00,46.4,37.0,27.40,SSE,157,0.0,0.0,71,0.00,,,0.00,Rainwise IP-100,2013-02-03 11:24:00,
2013-02-03 04:29:00,46.4,37.0,27.40,SSE,157,0.0,0.0,70,0.00,,,0.00,Rainwise IP-100,2013-02-03 11:29:00,
2013-02-03 04:34:00,46.3,37.0,27.40,SSE,157,0.0,0.0,70,0.00,,,0.00,Rainwise IP-100,2013-02-03 11:34:00,
2013-02-03 04:39:00,46.2,37.0,27.40,SSE,157,0.0,0.0,70,0.00,,,0.00,Rainwise IP-100,2013-02-03 11:39:00,
2013-02-03 04:44:00,46.3,37.0,27.39,SSE,157,0.0,0.0,70,0.00,,,0.00,Rainwise IP-100,2013-02-03 11:44:00,
2013-02-03 04:49:00,46.3,37.0,27.39,SSE,157,0.0,0.0,71,0.00,,,0.00,Rainwise IP-100,2013-02-03 11:49:00,
2013-02-03 04:54:00,46.1,37.0,27.39,SSE,157,0.0,0.0,71,0.00,,,0.00,Rainwise IP-100,2013-02-03 11:54:00,
2013-02-03 04:59:00,45.9,37.0,27.39,SSE,157,0.0,0.0,70,0.00,,,0.00,Rainwise IP-100,2013-02-03 11:59:00,
2013-02-03 05:04:00,45.8,37.0,27.38,SSE,157,0.0,0.0,70,0.00,,,0.00,Rainwise IP-100,2013-02-03 12:04:00,
2013-02-03 05:09:00,45.9,37.0,27.39,SE,135,0.0,3.0,71,0.00,,,0.00,Rainwise IP-100,2013-02-03 12:09:00,
2013-02-03 05:14:00,46.1,37.0,27.39,SSE,157,0.0,0.0,71,0.00,,,0.00,Rainwise IP-100,2013-02-03 12:14:00,
2013-02-03 05:19:00,46.2,37.0,27.38,SSE,157,0.0,1.6,70,0.00,,,0.00,Rainwise IP-100,2013-02-03 12:19:00,
2013-02-03 05:24:00,46.3,37.0,27.38,SSE,157,0.0,0.0,70,0.00,,,0.00,Rainwise IP-100,2013-02-03 12:24:00,
2013-02-03 05:29:00,46.1,37.0,27.38,SSE,157,0.0,0.0,71,0.00,,,0.00,Rainwise IP-100,2013-02-03 12:29:00,
2013-02-03 05:34:00,45.7,38.0,27.38,SSE,157,0.0,2.1,73,0.00,,,0.00,Rainwise IP-100,2013-02-03 12:34:00,
2013-02-03 05:39:00,45.8,37.0,27.38,SSE,157,0.0,1.2,72,0.00,,,0.00,Rainwise IP-100,2013-02-03 12:39:00,
2013-02-03 05:44:00,46.0,37.0,27.38,SSW,202,0.0,1.2,72,0.00,,,0.00,Rainwise IP-100,2013-02-03 12:44:00,
2013-02-03 05:49:00,46.1,37.0,27.38,SSW,202,0.0,1.2,72,0.00,,,0.00,Rainwise IP-100,2013-02-03 12:49:00,
2013-02-03 05:54:00,46.2,37.0,27.38,SSW,202,0.0,0.0,71,0.00,,,0.00,Rainwise IP-100,2013-02-03 12:54:00,
2013-02-03 05:59:00,46.3,37.0,27.39,SSW,202,0.0,0.0,70,0.00,,,0.00,Rainwise IP-100,2013-02-03 12:59:00,
2013-02-03 06:04:00,46.6,37.0,27.38,SSW,202,0.0,0.0,70,0.00,,,0.00,Rainwise IP-100,2013-02-03 13:04:00,
2013-02-03 06:09:00,46.8,37.0,27.38,SSW,202,0.0,0.0,70,0.00,,,0.00,Rainwise IP-100,2013-02-03 13:09:00,
2013-02-03 06:14:00,46.5,37.0,27.38,SSW,202,0.0,0.0,70,0.00,,,0.00,Rainwise IP-100,2013-02-03 13:14:00,
2013-02-03 06:19:00,46.3,37.0,27.38,SSW,202,0.0,0.0,71,0.00,,,0.00,Rainwise IP-100,2013-02-03 13:19:00,
2013-02-03 06:24:00,46.1,37.0,27.38,SSW,202,0.0,0.0,71,0.00,,,0.00,Rainwise IP-100,2013-02-03 13:24:00,
2013-02-03 06:29:00,46.0,37.0,27.38,SSW,202,0.0,0.0,71,0.00,,,0.00,Rainwise IP-100,2013-02-03 13:29:00,
2013-02-03 06:34:00,46.0,37.0,27.38,SSW,202,0.0,0.0,71,0.00,,,0.00,Rainwise IP-100,2013-02-03 13:34:00,
2013-02-03 06:39:00,46.3,37.0,27.38,SSW,202,0.0,0.0,71,0.00,,,0.00,Rainwise IP-100,2013-02-03 13:39:00,
2013-02-03 06:44:00,46.6,38.0,27.38,SE,135,0.0,2.1,71,0.00,,,0.00,Rainwise IP-100,2013-02-03 13:44:00,
2013-02-03 06:49:00,46.7,37.0,27.38,SE,135,0.0,0.0,70,0.00,,,0.00,Rainwise IP-100,2013-02-03 13:49:00,
2013-02-03 06:54:00,46.6,38.0,27.38,SE,135,0.0,0.0,71,0.00,,,0.00,Rainwise IP-100,2013-02-03 13:54:00,
2013-02-03 06:59:00,46.5,38.0,27.38,SE,135,0.0,0.0,71,0.00,,,0.00,Rainwise IP-100,2013-02-03 13:59:00,
2013-02-03 07:04:00,46.5,38.0,27.38,SE,135,0.0,0.0,71,0.00,,,0.00,Rainwise IP-100,2013-02-03 14:04:00,
2013-02-03 07:09:00,46.5,38.0,27.39,SE,135,0.0,0.0,71,0.00,,,0.00,Rainwise IP-100,2013-02-03 14:09:00,
2013-02-03 07:14:00,46.6,38.0,27.39,SE,135,0.0,0.0,71,0.00,,,0.00,Rainwise IP-100,2013-02-03 14:14:00,
2013-02-03 07:19:00,46.7,38.0,27.39,SE,135,0.0,0.0,71,0.00,,,0.00,Rainwise IP-100,2013-02-03 14:19:00,
2013-02-03 07:24:00,46.9,37.0,27.39,SE,135,0.0,0.0,70,0.00,,,0.00,Rainwise IP-100,2013-02-03 14:24:00,
2013-02-03 07:29:00,46.8,37.0,27.39,SE,135,0.0,0.0,70,0.00,,,0.00,Rainwise IP-100,2013-02-03 14:29:00,
2013-02-03 07:34:00,47.2,37.0,27.39,SE,135,0.0,1.4,70,0.00,,,0.00,Rainwise IP-100,2013-02-03 14:34:00,
2013-02-03 07:39:00,47.5,38.0,27.39,SE,135,0.0,0.0,69,0.00,,,0.00,Rainwise IP-100,2013-02-03 14:39:00,
2013-02-03 07:44:00,47.6,38.0,27.39,SE,135,0.0,0.0,69,0.00,,,0.00,Rainwise IP-100,2013-02-03 14:44:00,
2013-02-03 07:49:00,47.7,38.0,27.39,SE,135,0.0,0.0,69,0.00,,,0.00,Rainwise IP-100,2013-02-03 14:49:00,
2013-02-03 07:54:00,47.9,38.0,27.39,SE,135,0.0,0.0,68,0.00,,,0.00,Rainwise IP-100,2013-02-03 14:54:00,
2013-02-03 07:59:00,48.1,38.0,27.39,SE,135,0.0,0.0,68,0.00,,,0.00,Rainwise IP-100,2013-02-03 14:59:00,
2013-02-03 08:04:00,48.2,38.0,27.39,SE,135,0.0,0.0,67,0.00,,,0.00,Rainwise IP-100,2013-02-03 15:04:00,
2013-02-03 08:09:00,48.3,38.0,27.38,SE,135,0.0,0.0,69,0.00,,,0.00,Rainwise IP-100,2013-02-03 15:09:00,
2013-02-03 08:14:00,48.6,40.0,27.38,SE,135,0.0,0.0,70,0.00,,,0.00,Rainwise IP-100,2013-02-03 15:14:00,
2013-02-03 08:19:00,49.0,39.0,27.39,SE,135,0.0,0.0,68,0.00,,,0.00,Rainwise IP-100,2013-02-03 15:19:00,
2013-02-03 08:24:00,49.3,39.0,27.39,SE,135,0.0,0.0,68,0.00,,,0.00,Rainwise IP-100,2013-02-03 15:24:00,
2013-02-03 08:29:00,49.5,39.0,27.39,SSE,157,0.0,1.9,68,0.00,,,0.00,Rainwise IP-100,2013-02-03 15:29:00,
2013-02-03 08:34:00,49.8,39.0,27.39,SSE,157,0.0,1.9,66,0.00,,,0.00,Rainwise IP-100,2013-02-03 15:34:00,
2013-02-03 08:39:00,50.4,39.0,27.39,SSE,157,0.0,0.0,64,0.00,,,0.00,Rainwise IP-100,2013-02-03 15:39:00,
2013-02-03 08:44:00,51.1,39.0,27.39,SSE,157,0.0,0.0,62,0.00,,,0.00,Rainwise IP-100,2013-02-03 15:44:00,
2013-02-03 08:49:00,51.6,39.0,27.39,WSW,247,0.0,0.0,61,0.00,,,0.00,Rainwise IP-100,2013-02-03 15:49:00,
2013-02-03 08:54:00,52.1,38.0,27.39,WSW,247,0.0,0.0,60,0.00,,,0.00,Rainwise IP-100,2013-02-03 15:54:00,
2013-02-03 08:59:00,52.5,39.0,27.39,WNW,292,0.0,0.0,59,0.00,,,0.00,Rainwise IP-100,2013-02-03 15:59:00,
2013-02-03 09:04:00,52.7,38.0,27.39,WNW,292,0.0,0.0,58,0.00,,,0.00,Rainwise IP-100,2013-02-03 16:04:00,
2013-02-03 09:09:00,52.9,38.0,27.39,WNW,292,0.0,0.0,58,0.00,,,0.00,Rainwise IP-100,2013-02-03 16:09:00,
2013-02-03 09:14:00,53.3,39.0,27.39,WNW,292,0.0,0.0,58,0.00,,,0.00,Rainwise IP-100,2013-02-03 16:14:00,
2013-02-03 09:19:00,53.8,39.0,27.39,WNW,292,0.0,1.2,57,0.00,,,0.00,Rainwise IP-100,2013-02-03 16:19:00,
2013-02-03 09:24:00,54.6,38.0,27.39,WNW,292,0.0,1.4,53,0.00,,,0.00,Rainwise IP-100,2013-02-03 16:24:00,
2013-02-03 09:29:00,55.5,38.0,27.39,NW,315,0.0,1.6,50,0.00,,,0.00,Rainwise IP-100,2013-02-03 16:29:00,
2013-02-03 09:34:00,55.9,37.0,27.39,NW,315,0.0,0.0,49,0.00,,,0.00,Rainwise IP-100,2013-02-03 16:34:00,
2013-02-03 09:39:00,56.1,36.0,27.39,NW,315,0.0,0.0,47,0.00,,,0.00,Rainwise IP-100,2013-02-03 16:39:00,
2013-02-03 09:44:00,56.5,36.0,27.40,WNW,292,0.0,2.3,46,0.00,,,0.00,Rainwise IP-100,2013-02-03 16:44:00,
2013-02-03 09:49:00,56.8,37.0,27.39,WNW,292,0.0,1.6,46,0.00,,,0.00,Rainwise IP-100,2013-02-03 16:49:00,
2013-02-03 09:54:00,57.2,36.0,27.40,WNW,292,0.0,0.0,45,0.00,,,0.00,Rainwise IP-100,2013-02-03 16:54:00,
2013-02-03 09:59:00,57.6,36.0,27.40,WNW,292,0.0,1.2,44,0.00,,,0.00,Rainwise IP-100,2013-02-03 16:59:00,
2013-02-03 10:04:00,58.0,36.0,27.40,WSW,247,1.6,2.3,43,0.00,,,0.00,Rainwise IP-100,2013-02-03 17:04:00,
2013-02-03 10:09:00,58.3,37.0,27.40,SSE,157,1.2,3.7,44,0.00,,,0.00,Rainwise IP-100,2013-02-03 17:09:00,
2013-02-03 10:14:00,58.6,37.0,27.41,WSW,247,0.0,1.9,44,0.00,,,0.00,Rainwise IP-100,2013-02-03 17:14:00,
2013-02-03 10:19:00,59.0,36.0,27.41,West,270,1.6,3.0,42,0.00,,,0.00,Rainwise IP-100,2013-02-03 17:19:00,
2013-02-03 10:24:00,59.5,33.0,27.40,West,270,1.2,2.1,38,0.00,,,0.00,Rainwise IP-100,2013-02-03 17:24:00,
2013-02-03 10:29:00,60.1,32.0,27.41,NW,315,0.0,3.3,35,0.00,,,0.00,Rainwise IP-100,2013-02-03 17:29:00,
2013-02-03 10:34:00,60.6,32.0,27.41,SSW,202,2.1,2.6,34,0.00,,,0.00,Rainwise IP-100,2013-02-03 17:34:00,
2013-02-03 10:39:00,61.1,32.0,27.40,WSW,247,0.0,2.8,33,0.00,,,0.00,Rainwise IP-100,2013-02-03 17:39:00,
2013-02-03 10:44:00,61.5,32.0,27.40,SSW,202,0.0,2.8,32,0.00,,,0.00,Rainwise IP-100,2013-02-03 17:44:00,
2013-02-03 10:49:00,61.9,32.0,27.40,West,270,0.0,3.5,32,0.00,,,0.00,Rainwise IP-100,2013-02-03 17:49:00,
2013-02-03 10:54:00,62.4,32.0,27.40,SW,225,2.6,2.8,32,0.00,,,0.00,Rainwise IP-100,2013-02-03 17:54:00,
2013-02-03 10:59:00,62.7,32.0,27.40,WSW,247,0.0,2.8,31,0.00,,,0.00,Rainwise IP-100,2013-02-03 17:59:00,
2013-02-03 11:04:00,62.9,31.0,27.40,WSW,247,0.0,3.3,30,0.00,,,0.00,Rainwise IP-100,2013-02-03 18:04:00,
2013-02-03 11:09:00,63.3,32.0,27.40,West,270,1.9,2.6,30,0.00,,,0.00,Rainwise IP-100,2013-02-03 18:09:00,
2013-02-03 11:14:00,63.8,31.0,27.40,WNW,292,2.1,4.2,29,0.00,,,0.00,Rainwise IP-100,2013-02-03 18:14:00,
2013-02-03 11:19:00,64.1,31.0,27.39,WNW,292,4.2,4.2,28,0.00,,,0.00,Rainwise IP-100,2013-02-03 18:19:00,
2013-02-03 11:24:00,64.2,31.0,27.40,West,270,2.1,4.9,28,0.00,,,0.00,Rainwise IP-100,2013-02-03 18:24:00,
2013-02-03 11:29:00,64.3,29.0,27.40,West,270,2.1,4.4,27,0.00,,,0.00,Rainwise IP-100,2013-02-03 18:29:00,
2013-02-03 11:34:00,64.4,29.0,27.39,WNW,292,0.0,6.3,26,0.00,,,0.00,Rainwise IP-100,2013-02-03 18:34:00,
2013-02-03 11:39:00,64.6,28.0,27.39,WSW,247,1.6,4.0,25,0.00,,,0.00,Rainwise IP-100,2013-02-03 18:39:00,
2013-02-03 11:44:00,64.9,29.0,27.39,WNW,292,3.7,3.7,25,0.00,,,0.00,Rainwise IP-100,2013-02-03 18:44:00,
2013-02-03 11:49:00,65.2,28.0,27.38,WSW,247,0.0,4.2,24,0.00,,,0.00,Rainwise IP-100,2013-02-03 18:49:00,
2013-02-03 11:54:00,65.4,28.0,27.38,WSW,247,1.4,3.0,24,0.00,,,0.00,Rainwise IP-100,2013-02-03 18:54:00,
2013-02-03 11:59:00,65.9,28.0,27.38,WSW,247,1.4,2.3,23,0.00,,,0.00,Rainwise IP-100,2013-02-03 18:59:00,
2013-02-03 12:04:00,66.4,26.0,27.38,West,270,2.3,3.7,22,0.00,,,0.00,Rainwise IP-100,2013-02-03 19:04:00,
2013-02-03 12:09:00,66.6,28.0,27.37,West,270,1.9,3.5,22,0.00,,,0.00,Rainwise IP-100,2013-02-03 19:09:00,
2013-02-03 12:14:00,66.7,28.0,27.37,WNW,292,1.4,4.7,22,0.00,,,0.00,Rainwise IP-100,2013-02-03 19:14:00,
2013-02-03 12:19:00,66.7,28.0,27.37,ENE,67,1.6,3.3,22,0.00,,,0.00,Rainwise IP-100,2013-02-03 19:19:00,
2013-02-03 12:24:00,66.6,28.0,27.36,ESE,112,1.4,2.3,22,0.00,,,0.00,Rainwise IP-100,2013-02-03 19:24:00,
2013-02-03 12:29:00,66.8,28.0,27.36,North,360,1.2,2.8,22,0.00,,,0.00,Rainwise IP-100,2013-02-03 19:29:00,
2013-02-03 12:34:00,67.5,26.0,27.36,North,360,0.0,2.8,21,0.00,,,0.00,Rainwise IP-100,2013-02-03 19:34:00,
2013-02-03 12:39:00,67.9,26.0,27.35,WNW,292,3.0,3.0,21,0.00,,,0.00,Rainwise IP-100,2013-02-03 19:39:00,
2013-02-03 12:44:00,68.0,26.0,27.35,WNW,292,0.0,3.3,21,0.00,,,0.00,Rainwise IP-100,2013-02-03 19:44:00,
2013-02-03 12:49:00,67.7,26.0,27.34,SSW,202,1.4,1.9,21,0.00,,,0.00,Rainwise IP-100,2013-02-03 19:49:00,
2013-02-03 12:54:00,67.8,26.0,27.35,South,180,0.0,4.2,21,0.00,,,0.00,Rainwise IP-100,2013-02-03 19:54:00,
2013-02-03 12:59:00,67.7,26.0,27.34,SSE,157,0.0,3.7,21,0.00,,,0.00,Rainwise IP-100,2013-02-03 19:59:00,
2013-02-03 13:04:00,67.3,26.0,27.35,WSW,247,3.3,3.3,21,0.00,,,0.00,Rainwise IP-100,2013-02-03 20:04:00,
2013-02-03 13:09:00,67.0,28.0,27.35,WSW,247,1.2,3.7,22,0.00,,,0.00,Rainwise IP-100,2013-02-03 20:09:00,
2013-02-03 13:14:00,66.7,28.0,27.34,WSW,247,0.0,2.6,23,0.00,,,0.00,Rainwise IP-100,2013-02-03 20:14:00,
2013-02-03 13:19:00,66.5,28.0,27.34,WSW,247,1.4,1.6,23,0.00,,,0.00,Rainwise IP-100,2013-02-03 20:19:00,
2013-02-03 13:24:00,66.3,28.0,27.35,West,270,1.6,3.0,23,0.00,,,0.00,Rainwise IP-100,2013-02-03 20:24:00,
2013-02-03 13:29:00,66.1,28.0,27.34,WSW,247,1.4,4.0,23,0.00,,,0.00,Rainwise IP-100,2013-02-03 20:29:00,
2013-02-03 13:34:00,66.0,26.0,27.34,WSW,247,1.9,2.6,22,0.00,,,0.00,Rainwise IP-100,2013-02-03 20:34:00,
2013-02-03 13:39:00,66.0,26.0,27.33,WNW,292,2.1,2.8,22,0.00,,,0.00,Rainwise IP-100,2013-02-03 20:39:00,
2013-02-03 13:44:00,66.1,26.0,27.34,WSW,247,1.2,4.0,22,0.00,,,0.00,Rainwise IP-100,2013-02-03 20:44:00,
2013-02-03 13:49:00,66.1,26.0,27.33,South,180,2.3,2.6,22,0.00,,,0.00,Rainwise IP-100,2013-02-03 20:49:00,
2013-02-03 13:54:00,66.2,28.0,27.32,SSW,202,0.0,3.0,23,0.00,,,0.00,Rainwise IP-100,2013-02-03 20:54:00,
2013-02-03 13:59:00,66.1,28.0,27.33,SSW,202,0.0,0.0,23,0.00,,,0.00,Rainwise IP-100,2013-02-03 20:59:00,
2013-02-03 14:04:00,66.1,26.0,27.33,SSE,157,0.0,2.6,22,0.00,,,0.00,Rainwise IP-100,2013-02-03 21:04:00,
2013-02-03 14:09:00,66.0,26.0,27.32,ESE,112,0.0,1.9,22,0.00,,,0.00,Rainwise IP-100,2013-02-03 21:09:00,
2013-02-03 14:14:00,66.0,26.0,27.32,ESE,112,2.8,2.8,22,0.00,,,0.00,Rainwise IP-100,2013-02-03 21:14:00,
2013-02-03 14:19:00,66.0,26.0,27.32,ESE,112,2.6,3.7,22,0.00,,,0.00,Rainwise IP-100,2013-02-03 21:19:00,
2013-02-03 14:24:00,66.1,26.0,27.32,SSE,157,2.3,3.7,22,0.00,,,0.00,Rainwise IP-100,2013-02-03 21:24:00,
2013-02-03 14:29:00,66.2,26.0,27.31,ESE,112,2.3,5.1,22,0.00,,,0.00,Rainwise IP-100,2013-02-03 21:29:00,
2013-02-03 14:34:00,66.2,28.0,27.31,South,180,1.4,5.6,23,0.00,,,0.00,Rainwise IP-100,2013-02-03 21:34:00,
2013-02-03 14:39:00,66.2,29.0,27.31,SE,135,1.9,1.9,25,0.00,,,0.00,Rainwise IP-100,2013-02-03 21:39:00,
2013-02-03 14:44:00,66.4,29.0,27.31,South,180,0.0,3.3,24,0.00,,,0.00,Rainwise IP-100,2013-02-03 21:44:00,
2013-02-03 14:49:00,66.6,28.0,27.31,SSW,202,1.9,2.8,23,0.00,,,0.00,Rainwise IP-100,2013-02-03 21:49:00,
2013-02-03 14:54:00,66.9,28.0,27.30,WSW,247,0.0,3.3,23,0.00,,,0.00,Rainwise IP-100,2013-02-03 21:54:00,
2013-02-03 14:59:00,67.0,29.0,27.31,West,270,2.8,5.1,24,0.00,,,0.00,Rainwise IP-100,2013-02-03 21:59:00,
2013-02-03 15:04:00,67.0,29.0,27.31,SW,225,0.0,4.2,24,0.00,,,0.00,Rainwise IP-100,2013-02-03 22:04:00,
2013-02-03 15:09:00,67.1,29.0,27.30,SE,135,0.0,5.1,24,0.00,,,0.00,Rainwise IP-100,2013-02-03 22:09:00,
2013-02-03 15:14:00,67.4,29.0,27.30,West,270,2.3,3.5,23,0.00,,,0.00,Rainwise IP-100,2013-02-03 22:14:00,
2013-02-03 15:19:00,67.5,29.0,27.30,NNW,337,3.0,4.4,24,0.00,,,0.00,Rainwise IP-100,2013-02-03 22:19:00,
2013-02-03 15:24:00,67.2,29.0,27.30,NNW,337,2.1,4.4,24,0.00,,,0.00,Rainwise IP-100,2013-02-03 22:24:00,
2013-02-03 15:29:00,67.0,29.0,27.30,NNW,337,1.4,5.4,24,0.00,,,0.00,Rainwise IP-100,2013-02-03 22:29:00,
2013-02-03 15:34:00,67.2,29.0,27.30,WNW,292,4.0,4.4,24,0.00,,,0.00,Rainwise IP-100,2013-02-03 22:34:00,
2013-02-03 15:39:00,67.8,29.0,27.29,NNW,337,4.7,4.9,23,0.00,,,0.00,Rainwise IP-100,2013-02-03 22:39:00,
2013-02-03 15:44:00,68.3,28.0,27.30,WNW,292,1.9,5.6,22,0.00,,,0.00,Rainwise IP-100,2013-02-03 22:44:00,
2013-02-03 15:49:00,68.7,28.0,27.29,NW,315,0.0,5.6,22,0.00,,,0.00,Rainwise IP-100,2013-02-03 22:49:00,
2013-02-03 15:54:00,68.8,29.0,27.29,WNW,292,3.5,4.4,22,0.00,,,0.00,Rainwise IP-100,2013-02-03 22:54:00,
2013-02-03 15:59:00,68.8,28.0,27.29,NW,315,2.3,5.8,21,0.00,,,0.00,Rainwise IP-100,2013-02-03 22:59:00,
2013-02-03 16:04:00,68.9,28.0,27.30,WNW,292,0.0,4.7,21,0.00,,,0.00,Rainwise IP-100,2013-02-03 23:04:00,
2013-02-03 16:09:00,69.1,28.0,27.30,WNW,292,3.0,4.7,21,0.00,,,0.00,Rainwise IP-100,2013-02-03 23:09:00,
2013-02-03 16:14:00,69.0,28.0,27.29,SSW,202,1.2,4.9,21,0.00,,,0.00,Rainwise IP-100,2013-02-03 23:14:00,
2013-02-03 16:19:00,69.0,28.0,27.29,WSW,247,0.0,2.6,21,0.00,,,0.00,Rainwise IP-100,2013-02-03 23:19:00,
2013-02-03 16:24:00,69.4,28.0,27.29,WSW,247,2.3,2.3,21,0.00,,,0.00,Rainwise IP-100,2013-02-03 23:24:00,
2013-02-03 16:29:00,69.9,29.0,27.29,WNW,292,2.6,4.0,22,0.00,,,0.00,Rainwise IP-100,2013-02-03 23:29:00,
2013-02-03 16:34:00,69.9,29.0,27.29,NW,315,0.0,3.5,22,0.00,,,0.00,Rainwise IP-100,2013-02-03 23:34:00,
2013-02-03 16:39:00,69.8,29.0,27.29,West,270,3.0,3.7,22,0.00,,,0.00,Rainwise IP-100,2013-02-03 23:39:00,
2013-02-03 16:44:00,69.6,29.0,27.29,WNW,292,0.0,4.4,22,0.00,,,0.00,Rainwise IP-100,2013-02-03 23:44:00,
2013-02-03 16:49:00,69.1,29.0,27.29,WNW,292,0.0,2.8,23,0.00,,,0.00,Rainwise IP-100,2013-02-03 23:49:00,
2013-02-03 16:54:00,68.9,31.0,27.29,West,270,2.6,3.7,24,0.00,,,0.00,Rainwise IP-100,2013-02-03 23:54:00,
2013-02-03 16:59:00,68.7,31.0,27.29,West,270,1.4,3.3,24,0.00,,,0.00,Rainwise IP-100,2013-02-03 23:59:00,
2013-02-03 17:04:00,68.5,32.0,27.30,West,270,0.0,3.0,25,0.00,,,0.00,Rainwise IP-100,2013-02-04 00:04:00,
2013-02-03 17:09:00,68.1,31.0,27.29,West,270,2.6,2.6,25,0.00,,,0.00,Rainwise IP-100,2013-02-04 00:09:00,
2013-02-03 17:14:00,67.7,32.0,27.30,West,270,0.0,2.8,26,0.00,,,0.00,Rainwise IP-100,2013-02-04 00:14:00,
2013-02-03 17:19:00,67.3,32.0,27.30,West,270,0.0,1.6,26,0.00,,,0.00,Rainwise IP-100,2013-02-04 00:19:00,
2013-02-03 17:24:00,67.0,32.0,27.30,West,270,0.0,0.0,27,0.00,,,0.00,Rainwise IP-100,2013-02-04 00:24:00,
2013-02-03 17:29:00,66.7,32.0,27.30,West,270,0.0,0.0,27,0.00,,,0.00,Rainwise IP-100,2013-02-04 00:29:00,
2013-02-03 17:34:00,66.3,32.0,27.30,West,270,0.0,0.0,28,0.00,,,0.00,Rainwise IP-100,2013-02-04 00:34:00,
2013-02-03 17:39:00,66.0,32.0,27.30,West,270,0.0,0.0,28,0.00,,,0.00,Rainwise IP-100,2013-02-04 00:39:00,
2013-02-03 17:44:00,65.5,32.0,27.30,West,270,0.0,0.0,28,0.00,,,0.00,Rainwise IP-100,2013-02-04 00:44:00,
2013-02-03 17:49:00,64.9,32.0,27.30,West,270,0.0,0.0,29,0.00,,,0.00,Rainwise IP-100,2013-02-04 00:49:00,
2013-02-03 17:54:00,64.2,33.0,27.30,West,270,0.0,0.0,31,0.00,,,0.00,Rainwise IP-100,2013-02-04 00:54:00,
2013-02-03 17:59:00,63.5,33.0,27.30,West,270,0.0,0.0,33,0.00,,,0.00,Rainwise IP-100,2013-02-04 00:59:00,
2013-02-03 18:04:00,62.9,33.0,27.30,West,270,0.0,0.0,33,0.00,,,0.00,Rainwise IP-100,2013-02-04 01:04:00,
2013-02-03 18:09:00,62.2,32.0,27.31,West,270,0.0,0.0,33,0.00,,,0.00,Rainwise IP-100,2013-02-04 01:09:00,
2013-02-03 18:14:00,61.5,35.0,27.31,West,270,0.0,0.0,36,0.00,,,0.00,Rainwise IP-100,2013-02-04 01:14:00,
2013-02-03 18:19:00,60.9,36.0,27.31,West,270,0.0,0.0,38,0.00,,,0.00,Rainwise IP-100,2013-02-04 01:19:00,
2013-02-03 18:24:00,60.6,35.0,27.30,West,270,0.0,0.0,38,0.00,,,0.00,Rainwise IP-100,2013-02-04 01:24:00,
2013-02-03 18:29:00,60.4,36.0,27.30,West,270,0.0,0.0,39,0.00,,,0.00,Rainwise IP-100,2013-02-04 01:29:00,
2013-02-03 18:34:00,59.9,36.0,27.31,West,270,0.0,0.0,40,0.00,,,0.00,Rainwise IP-100,2013-02-04 01:34:00,
2013-02-03 18:39:00,59.2,36.0,27.31,West,270,0.0,0.0,42,0.00,,,0.00,Rainwise IP-100,2013-02-04 01:39:00,
2013-02-03 18:44:00,58.5,37.0,27.31,West,270,0.0,0.0,43,0.00,,,0.00,Rainwise IP-100,2013-02-04 01:44:00,
2013-02-03 18:49:00,58.0,37.0,27.31,West,270,0.0,0.0,44,0.00,,,0.00,Rainwise IP-100,2013-02-04 01:49:00,
2013-02-03 18:54:00,57.8,37.0,27.31,West,270,0.0,0.0,45,0.00,,,0.00,Rainwise IP-100,2013-02-04 01:54:00,
2013-02-03 18:59:00,57.6,37.0,27.32,West,270,0.0,0.0,46,0.00,,,0.00,Rainwise IP-100,2013-02-04 01:59:00,
2013-02-03 19:04:00,57.3,37.0,27.31,West,270,0.0,0.0,46,0.00,,,0.00,Rainwise IP-100,2013-02-04 02:04:00,
2013-02-03 19:09:00,57.1,37.0,27.32,West,270,0.0,0.0,47,0.00,,,0.00,Rainwise IP-100,2013-02-04 02:09:00,
2013-02-03 19:14:00,57.0,38.0,27.32,West,270,0.0,0.0,48,0.00,,,0.00,Rainwise IP-100,2013-02-04 02:14:00,
2013-02-03 19:19:00,57.3,38.0,27.32,ESE,112,1.4,0.0,48,0.00,,,0.00,Rainwise IP-100,2013-02-04 02:19:00,
2013-02-03 19:24:00,58.3,38.0,27.32,ESE,112,2.1,3.3,46,0.00,,,0.00,Rainwise IP-100,2013-02-04 02:24:00,
2013-02-03 19:29:00,58.9,38.0,27.33,ESE,112,1.9,3.3,45,0.00,,,0.00,Rainwise IP-100,2013-02-04 02:29:00,
2013-02-03 19:34:00,59.0,37.0,27.33,ESE,112,1.9,3.3,44,0.00,,,0.00,Rainwise IP-100,2013-02-04 02:34:00,
2013-02-03 19:39:00,59.0,37.0,27.33,ESE,112,1.6,3.5,44,0.00,,,0.00,Rainwise IP-100,2013-02-04 02:39:00,
2013-02-03 19:44:00,59.1,37.0,27.33,ESE,112,0.0,3.0,44,0.00,,,0.00,Rainwise IP-100,2013-02-04 02:44:00,
2013-02-03 19:49:00,59.2,37.0,27.33,ESE,112,1.9,2.6,44,0.00,,,0.00,Rainwise IP-100,2013-02-04 02:49:00,
2013-02-03 19:54:00,59.1,37.0,27.33,SSW,202,0.0,3.3,43,0.00,,,0.00,Rainwise IP-100,2013-02-04 02:54:00,
2013-02-03 19:59:00,59.4,36.0,27.33,SE,135,1.9,2.8,42,0.00,,,0.00,Rainwise IP-100,2013-02-04 02:59:00,
2013-02-03 20:04:00,59.6,36.0,27.33,ESE,112,2.3,2.6,42,0.00,,,0.00,Rainwise IP-100,2013-02-04 03:04:00,
2013-02-03 20:09:00,59.5,36.0,27.33,ESE,112,0.0,3.7,42,0.00,,,0.00,Rainwise IP-100,2013-02-04 03:09:00,
2013-02-03 20:14:00,59.2,37.0,27.34,ESE,112,0.0,1.2,43,0.00,,,0.00,Rainwise IP-100,2013-02-04 03:14:00,
2013-02-03 20:19:00,58.7,37.0,27.34,SSE,157,0.0,1.6,43,0.00,,,0.00,Rainwise IP-100,2013-02-04 03:19:00,
2013-02-03 20:24:00,58.5,37.0,27.34,ESE,112,0.0,2.3,44,0.00,,,0.00,Rainwise IP-100,2013-02-04 03:24:00,
2013-02-03 20:29:00,58.4,37.0,27.34,ESE,112,0.0,1.6,44,0.00,,,0.00,Rainwise IP-100,2013-02-04 03:29:00,
2013-02-03 20:34:00,58.4,37.0,27.34,SE,135,1.2,3.3,44,0.00,,,0.00,Rainwise IP-100,2013-02-04 03:34:00,
2013-02-03 20:39:00,58.4,37.0,27.34,SSE,157,1.9,2.3,44,0.00,,,0.00,Rainwise IP-100,2013-02-04 03:39:00,
2013-02-03 20:44:00,58.2,37.0,27.34,SSE,157,1.4,2.6,44,0.00,,,0.00,Rainwise IP-100,2013-02-04 03:44:00,
2013-02-03 20:49:00,58.0,37.0,27.34,South,180,0.0,2.3,44,0.00,,,0.00,Rainwise IP-100,2013-02-04 03:49:00,
2013-02-03 20:54:00,57.9,37.0,27.34,South,180,0.0,1.4,44,0.00,,,0.00,Rainwise IP-100,2013-02-04 03:54:00,
2013-02-03 20:59:00,57.7,37.0,27.35,South,180,0.0,0.0,45,0.00,,,0.00,Rainwise IP-100,2013-02-04 03:59:00,
2013-02-03 21:04:00,57.4,37.0,27.35,South,180,0.0,0.0,46,0.00,,,0.00,Rainwise IP-100,2013-02-04 04:04:00,
2013-02-03 21:09:00,57.1,37.0,27.35,South,180,0.0,1.4,46,0.00,,,0.00,Rainwise IP-100,2013-02-04 04:09:00,
2013-02-03 21:14:00,57.1,37.0,27.35,SSE,157,0.0,1.2,47,0.00,,,0.00,Rainwise IP-100,2013-02-04 04:14:00,
2013-02-03 21:19:00,57.2,37.0,27.35,SSE,157,0.0,0.0,47,0.00,,,0.00,Rainwise IP-100,2013-02-04 04:19:00,
2013-02-03 21:24:00,57.0,37.0,27.35,SSE,157,0.0,0.0,47,0.00,,,0.00,Rainwise IP-100,2013-02-04 04:24:00,
2013-02-03 21:29:00,56.8,37.0,27.35,SSE,157,0.0,0.0,47,0.00,,,0.00,Rainwise IP-100,2013-02-04 04:29:00,
2013-02-03 21:34:00,56.7,37.0,27.35,SE,135,0.0,1.2,48,0.00,,,0.00,Rainwise IP-100,2013-02-04 04:34:00,
2013-02-03 21:39:00,56.4,38.0,27.35,SE,135,0.0,1.9,49,0.00,,,0.00,Rainwise IP-100,2013-02-04 04:39:00,
2013-02-03 21:44:00,56.3,38.0,27.36,SE,135,1.2,1.6,49,0.00,,,0.00,Rainwise IP-100,2013-02-04 04:44:00,
2013-02-03 21:49:00,56.3,38.0,27.36,SE,135,0.0,1.9,49,0.00,,,0.00,Rainwise IP-100,2013-02-04 04:49:00,
2013-02-03 21:54:00,56.2,37.0,27.36,SE,135,0.0,1.9,49,0.00,,,0.00,Rainwise IP-100,2013-02-04 04:54:00,
2013-02-03 21:59:00,56.1,37.0,27.35,East,90,1.2,3.7,49,0.00,,,0.00,Rainwise IP-100,2013-02-04 04:59:00,
2013-02-03 22:00:00,56.1,37.0,27.36,East,90,1.6,3.7,49,0.00,,,0.00,Rainwise IP-100,2013-02-04 05:00:00,
2013-02-03 22:02:00,56.2,37.0,27.36,ESE,112,2.3,3.7,49,0.00,,,0.00,Rainwise IP-100,2013-02-04 05:02:00,
2013-02-03 22:07:00,56.4,38.0,27.36,ESE,112,1.4,3.5,49,0.00,,,0.00,Rainwise IP-100,2013-02-04 05:07:00,
2013-02-03 22:12:00,56.3,38.0,27.35,ESE,112,0.0,2.1,49,0.00,,,0.00,Rainwise IP-100,2013-02-04 05:12:00,
2013-02-03 22:17:00,55.9,37.0,27.35,ESE,112,0.0,0.0,49,0.00,,,0.00,Rainwise IP-100,2013-02-04 05:17:00,
2013-02-03 22:22:00,55.4,37.0,27.35,ESE,112,0.0,0.0,49,0.00,,,0.00,Rainwise IP-100,2013-02-04 05:22:00,
2013-02-03 22:27:00,54.8,37.0,27.35,ESE,112,0.0,0.0,50,0.00,,,0.00,Rainwise IP-100,2013-02-04 05:27:00,
2013-02-03 22:32:00,54.2,36.0,27.35,ESE,112,0.0,0.0,51,0.00,,,0.00,Rainwise IP-100,2013-02-04 05:32:00,
2013-02-03 22:37:00,53.5,36.0,27.35,ESE,112,0.0,0.0,52,0.00,,,0.00,Rainwise IP-100,2013-02-04 05:37:00,
2013-02-03 22:42:00,53.0,36.0,27.35,ESE,112,0.0,0.0,53,0.00,,,0.00,Rainwise IP-100,2013-02-04 05:42:00,
2013-02-03 22:47:00,52.4,36.0,27.35,ESE,112,0.0,0.0,54,0.00,,,0.00,Rainwise IP-100,2013-02-04 05:47:00,
2013-02-03 22:52:00,52.0,37.0,27.35,ESE,112,0.0,0.0,56,0.00,,,0.00,Rainwise IP-100,2013-02-04 05:52:00,
2013-02-03 22:57:00,51.5,37.0,27.35,ESE,112,0.0,0.0,56,0.00,,,0.00,Rainwise IP-100,2013-02-04 05:57:00,
2013-02-03 23:02:00,51.0,37.0,27.35,ESE,112,0.0,0.0,57,0.00,,,0.00,Rainwise IP-100,2013-02-04 06:02:00,
2013-02-03 23:07:00,50.3,36.0,27.35,ESE,112,0.0,0.0,58,0.00,,,0.00,Rainwise IP-100,2013-02-04 06:07:00,
2013-02-03 23:12:00,49.5,37.0,27.36,ESE,112,0.0,0.0,60,0.00,,,0.00,Rainwise IP-100,2013-02-04 06:12:00,
2013-02-03 23:17:00,48.7,37.0,27.35,ESE,112,0.0,0.0,62,0.00,,,0.00,Rainwise IP-100,2013-02-04 06:17:00,
2013-02-03 23:22:00,48.2,37.0,27.35,ESE,112,0.0,0.0,65,0.00,,,0.00,Rainwise IP-100,2013-02-04 06:22:00,
2013-02-03 23:27:00,48.1,37.0,27.35,ESE,112,0.0,0.0,66,0.00,,,0.00,Rainwise IP-100,2013-02-04 06:27:00,
2013-02-03 23:32:00,47.9,37.0,27.35,ESE,112,0.0,0.0,65,0.00,,,0.00,Rainwise IP-100,2013-02-04 06:32:00,
2013-02-03 23:37:00,47.6,37.0,27.36,ESE,112,0.0,0.0,66,0.00,,,0.00,Rainwise IP-100,2013-02-04 06:37:00,
2013-02-03 23:42:00,47.0,37.0,27.36,ESE,112,0.0,0.0,68,0.00,,,0.00,Rainwise IP-100,2013-02-04 06:42:00,
2013-02-03 23:47:00,46.5,37.0,27.36,ESE,112,0.0,0.0,68,0.00,,,0.00,Rainwise IP-100,2013-02-04 06:47:00,
2013-02-03 23:52:00,46.1,36.0,27.36,ESE,112,0.0,0.0,69,0.00,,,0.00,Rainwise IP-100,2013-02-04 06:52:00,
2013-02-03 23:57:00,45.6,37.0,27.36,ESE,112,0.0,0.0,70,0.00,,,0.00,Rainwise IP-100,2013-02-04 06:57:00,